owner,sensor,date,latitude,longitude,vertical_datum,direction_of_sea_water_velocity,sea_water_speed,upward_sea_water_velocity,qcFlag 
TABS,ioos:station:wmo:42043:1,2007-05-01T00:00:00Z,28.9818,-94.9186,2.0,284.5017028,58.26625267,-99999.0,'11111222,11111222,99999999' 
TABS,ioos:station:wmo:42043:1,2007-05-01T00:30:00Z,28.9818,-94.9186,2.0,285.8247436,60.4717496,-99999.0,'11111222,11111222,99999999' 
TABS,ioos:station:wmo:42043:1,2007-05-01T01:00:00Z,28.9818,-94.9186,2.0,291.7054786,62.97494899,-99999.0,'11111222,11111222,99999999' 
TABS,ioos:station:wmo:42043:1,2007-05-01T01:30:00Z,28.9818,-94.9186,2.0,295.1267992,62.88016301,-99999.0,'11111222,11111222,99999999' 
TABS,ioos:station:wmo:42043:1,2007-05-01T02:00:00Z,28.9818,-94.9186,2.0,292.2908454,62.21948971,-99999.0,'11111222,11111222,99999999' 
TABS,ioos:station:wmo:42043:1,2007-05-01T02:30:00Z,28.9818,-94.9186,2.0,291.5691376,58.53908096,-99999.0,'11111222,11111222,99999999' 
TABS,ioos:station:wmo:42043:1,2007-05-01T03:00:00Z,28.9818,-94.9186,2.0,297.2086022,57.36770259,-99999.0,'11111222,11111222,99999999' 
TABS,ioos:station:wmo:42043:1,2007-05-01T03:30:00Z,28.9818,-94.9186,2.0,298.7721731,56.67716295,-99999.0,'11111222,11111222,99999999' 
TABS,ioos:station:wmo:42043:1,2007-05-01T04:00:00Z,28.9818,-94.9186,2.0,298.9610185,63.98062832,-99999.0,'11111222,11111222,99999999' 
TABS,ioos:station:wmo:42043:1,2007-05-01T04:30:00Z,28.9818,-94.9186,2.0,302.4848461,69.33900562,-99999.0,'11111222,11111222,99999999' 
TABS,ioos:station:wmo:42043:1,2007-05-01T05:00:00Z,28.9818,-94.9186,2.0,303.4523496,72.09223328,-99999.0,'11111222,11111222,99999999' 
TABS,ioos:station:wmo:42043:1,2007-05-01T05:30:00Z,28.9818,-94.9186,2.0,308.5009846,68.02955314,-99999.0,'11111222,11111222,99999999' 
TABS,ioos:station:wmo:42043:1,2007-05-01T06:00:00Z,28.9818,-94.9186,2.0,342.0267631,54.1842228,-99999.0,'11111222,11111222,99999999' 
TABS,ioos:station:wmo:42043:1,2007-05-01T06:30:00Z,28.9818,-94.9186,2.0,344.8527736,54.1514118,-99999.0,'11111222,11111222,99999999' 
TABS,ioos:station:wmo:42043:1,2007-05-01T07:00:00Z,28.9818,-94.9186,2.0,346.6759857,53.2843401,-99999.0,'11111222,11111222,99999999' 
TABS,ioos:station:wmo:42043:1,2007-05-01T07:30:00Z,28.9818,-94.9186,2.0,349.6660483,52.40002385,-99999.0,'11111222,11111222,99999999' 
TABS,ioos:station:wmo:42043:1,2007-05-01T08:00:00Z,28.9818,-94.9186,2.0,351.175497,51.5603588,-99999.0,'11111222,11111222,99999999' 
TABS,ioos:station:wmo:42043:1,2007-05-01T08:30:00Z,28.9818,-94.9186,2.0,353.7736132,52.92220422,-99999.0,'11111222,11111222,99999999' 
TABS,ioos:station:wmo:42043:1,2007-05-01T09:30:00Z,28.9818,-94.9186,2.0,357.8837506,50.36435744,-99999.0,'11111222,11111222,99999999' 
TABS,ioos:station:wmo:42043:1,2007-05-01T10:00:00Z,28.9818,-94.9186,2.0,357.7721266,45.78461423,-99999.0,'11111222,11111222,99999999' 
TABS,ioos:station:wmo:42043:1,2007-05-01T10:30:00Z,28.9818,-94.9186,2.0,355.850645,48.50715927,-99999.0,'11111222,11111222,99999999' 
TABS,ioos:station:wmo:42043:1,2007-05-01T11:00:00Z,28.9818,-94.9186,2.0,353.716,45.2217315,-99999.0,'11111222,11111222,99999999' 
TABS,ioos:station:wmo:42043:1,2007-05-01T11:30:00Z,28.9818,-94.9186,2.0,352.9548964,43.69995995,-99999.0,'11111222,11111222,99999999' 
TABS,ioos:station:wmo:42043:1,2007-05-01T12:00:00Z,28.9818,-94.9186,2.0,356.9481015,49.77059875,-99999.0,'11111222,11111222,99999999' 
TABS,ioos:station:wmo:42043:1,2007-05-01T12:30:00Z,28.9818,-94.9186,2.0,15.94794274,33.15609295,-99999.0,'11111222,11111222,99999999' 
TABS,ioos:station:wmo:42043:1,2007-05-01T13:00:00Z,28.9818,-94.9186,2.0,17.98055522,27.50319436,-99999.0,'11111222,11111222,99999999' 
TABS,ioos:station:wmo:42043:1,2007-05-01T13:30:00Z,28.9818,-94.9186,2.0,40.93432211,21.84092718,-99999.0,'11111222,11111222,99999999' 
TABS,ioos:station:wmo:42043:1,2007-05-01T14:00:00Z,28.9818,-94.9186,2.0,50.41076981,14.24804548,-99999.0,'11111222,11111222,99999999' 
TABS,ioos:station:wmo:42043:1,2007-05-01T14:30:00Z,28.9818,-94.9186,2.0,60.77839842,13.99046104,-99999.0,'11111222,11111222,99999999' 
TABS,ioos:station:wmo:42043:1,2007-05-01T15:00:00Z,28.9818,-94.9186,2.0,56.07630339,12.91907504,-99999.0,'11111222,11111222,99999999' 
TABS,ioos:station:wmo:42043:1,2007-05-01T15:30:00Z,28.9818,-94.9186,2.0,60.83004167,9.642945608,-99999.0,'11133222,11111222,99999999' 
TABS,ioos:station:wmo:42043:1,2007-05-01T16:00:00Z,28.9818,-94.9186,2.0,72.0644374,8.345567686,-99999.0,'11133222,11111222,99999999' 
TABS,ioos:station:wmo:42043:1,2007-05-01T16:30:00Z,28.9818,-94.9186,2.0,89.85835469,8.090024722,-99999.0,'11133222,11111222,99999999' 
TABS,ioos:station:wmo:42043:1,2007-05-01T17:00:00Z,28.9818,-94.9186,2.0,97.25175976,7.288298841,-99999.0,'11133222,11111222,99999999' 
TABS,ioos:station:wmo:42043:1,2007-05-01T17:30:00Z,28.9818,-94.9186,2.0,130.6393841,9.765126727,-99999.0,'11133222,11111222,99999999' 
TABS,ioos:station:wmo:42043:1,2007-05-01T18:00:00Z,28.9818,-94.9186,2.0,129.1127836,7.307598785,-99999.0,'11133222,11111222,99999999' 
TABS,ioos:station:wmo:42043:1,2007-05-01T18:30:00Z,28.9818,-94.9186,2.0,121.3777979,7.355766445,-99999.0,'11133222,11111222,99999999' 
TABS,ioos:station:wmo:42043:1,2007-05-01T19:00:00Z,28.9818,-94.9186,2.0,144.5564,7.070190945,-99999.0,'11133222,11111222,99999999' 
TABS,ioos:station:wmo:42043:1,2007-05-01T19:30:00Z,28.9818,-94.9186,2.0,166.9318124,7.607003352,-99999.0,'11133222,11111222,99999999' 
TABS,ioos:station:wmo:42043:1,2007-05-01T20:00:00Z,28.9818,-94.9186,2.0,183.0793932,8.562365327,-99999.0,'11133222,11111222,99999999' 
TABS,ioos:station:wmo:42043:1,2007-05-01T20:30:00Z,28.9818,-94.9186,2.0,212.8738222,8.179883862,-99999.0,'11133222,11111222,99999999' 
TABS,ioos:station:wmo:42043:1,2007-05-01T21:00:00Z,28.9818,-94.9186,2.0,235.1495825,9.58995829,-99999.0,'11133222,11111222,99999999' 
TABS,ioos:station:wmo:42043:1,2007-05-01T21:30:00Z,28.9818,-94.9186,2.0,233.8384219,11.64289053,-99999.0,'11111222,11111222,99999999' 
TABS,ioos:station:wmo:42043:1,2007-05-01T22:00:00Z,28.9818,-94.9186,2.0,243.7862275,11.65907801,-99999.0,'11111222,11111222,99999999' 
TABS,ioos:station:wmo:42043:1,2007-05-01T22:30:00Z,28.9818,-94.9186,2.0,265.2605178,13.55634538,-99999.0,'11111222,11111222,99999999' 
TABS,ioos:station:wmo:42043:1,2007-05-01T23:00:00Z,28.9818,-94.9186,2.0,290.565224,15.23056466,-99999.0,'11111222,11111222,99999999' 
TABS,ioos:station:wmo:42043:1,2007-05-01T23:30:00Z,28.9818,-94.9186,2.0,329.0684623,39.99862123,-99999.0,'11111222,11111222,99999999' 
TABS,ioos:station:wmo:42043:1,2007-05-02T00:00:00Z,28.9818,-94.9186,2.0,329.49199,40.77507695,-99999.0,'11111222,11111222,99999999' 
TABS,ioos:station:wmo:42043:1,2007-05-02T00:30:00Z,28.9818,-94.9186,2.0,328.9132806,43.05310442,-99999.0,'11111222,11111222,99999999' 
TABS,ioos:station:wmo:42043:1,2007-05-02T01:00:00Z,28.9818,-94.9186,2.0,326.9799721,40.57354434,-99999.0,'11111222,11111222,99999999' 
TABS,ioos:station:wmo:42043:1,2007-05-02T01:30:00Z,28.9818,-94.9186,2.0,286.9562886,56.23454543,-99999.0,'11111222,11111222,99999999' 
TABS,ioos:station:wmo:42043:1,2007-05-02T02:00:00Z,28.9818,-94.9186,2.0,287.1518255,55.34109504,-99999.0,'11111222,11111222,99999999' 
TABS,ioos:station:wmo:42043:1,2007-05-02T02:30:00Z,28.9818,-94.9186,2.0,290.9583304,57.39722032,-99999.0,'11111222,11111222,99999999' 
TABS,ioos:station:wmo:42043:1,2007-05-02T03:00:00Z,28.9818,-94.9186,2.0,292.2928156,58.28633631,-99999.0,'11111222,11111222,99999999' 
TABS,ioos:station:wmo:42043:1,2007-05-02T03:30:00Z,28.9818,-94.9186,2.0,291.5399082,58.50578433,-99999.0,'11111222,11111222,99999999' 
TABS,ioos:station:wmo:42043:1,2007-05-02T04:00:00Z,28.9818,-94.9186,2.0,291.9026633,49.56773346,-99999.0,'11111222,11111222,99999999' 
TABS,ioos:station:wmo:42043:1,2007-05-02T04:30:00Z,28.9818,-94.9186,2.0,289.4497048,47.87173696,-99999.0,'11111222,11111222,99999999' 
TABS,ioos:station:wmo:42043:1,2007-05-02T05:00:00Z,28.9818,-94.9186,2.0,295.1033044,49.07530947,-99999.0,'11111222,11111222,99999999' 
TABS,ioos:station:wmo:42043:1,2007-05-02T05:30:00Z,28.9818,-94.9186,2.0,298.7115797,47.64825495,-99999.0,'11111222,11111222,99999999' 
TABS,ioos:station:wmo:42043:1,2007-05-02T06:00:00Z,28.9818,-94.9186,2.0,303.1642602,48.02242081,-99999.0,'11111222,11111222,99999999' 
TABS,ioos:station:wmo:42043:1,2007-05-02T06:30:00Z,28.9818,-94.9186,2.0,303.0242112,42.22108596,-99999.0,'11111222,11111222,99999999' 
TABS,ioos:station:wmo:42043:1,2007-05-02T07:00:00Z,28.9818,-94.9186,2.0,302.6846501,41.23999273,-99999.0,'11111222,11111222,99999999' 
TABS,ioos:station:wmo:42043:1,2007-05-02T07:30:00Z,28.9818,-94.9186,2.0,307.6063243,38.29716047,-99999.0,'11111222,11111222,99999999' 
TABS,ioos:station:wmo:42043:1,2007-05-02T08:00:00Z,28.9818,-94.9186,2.0,307.4136753,33.52750811,-99999.0,'11111222,11111222,99999999' 
TABS,ioos:station:wmo:42043:1,2007-05-02T08:30:00Z,28.9818,-94.9186,2.0,306.4831055,28.12064188,-99999.0,'11111222,11111222,99999999' 
TABS,ioos:station:wmo:42043:1,2007-05-02T09:00:00Z,28.9818,-94.9186,2.0,308.8320564,28.62677942,-99999.0,'11111222,11111222,99999999' 
TABS,ioos:station:wmo:42043:1,2007-05-02T09:30:00Z,28.9818,-94.9186,2.0,313.195121,26.48722334,-99999.0,'11111222,11111222,99999999' 
TABS,ioos:station:wmo:42043:1,2007-05-02T10:00:00Z,28.9818,-94.9186,2.0,305.1609279,23.66853185,-99999.0,'11111222,11111222,99999999' 
TABS,ioos:station:wmo:42043:1,2007-05-02T10:30:00Z,28.9818,-94.9186,2.0,300.8071311,21.28305429,-99999.0,'11111222,11111222,99999999' 
TABS,ioos:station:wmo:42043:1,2007-05-02T11:00:00Z,28.9818,-94.9186,2.0,291.419403,17.2514811,-99999.0,'11111222,11111222,99999999' 
TABS,ioos:station:wmo:42043:1,2007-05-02T11:30:00Z,28.9818,-94.9186,2.0,302.4022097,18.38186334,-99999.0,'11111222,11111222,99999999' 
TABS,ioos:station:wmo:42043:1,2007-05-02T12:00:00Z,28.9818,-94.9186,2.0,300.6941703,15.65284958,-99999.0,'11111222,11111222,99999999' 
TABS,ioos:station:wmo:42043:1,2007-05-02T12:30:00Z,28.9818,-94.9186,2.0,283.6689505,10.96041058,-99999.0,'11111222,11111222,99999999' 
TABS,ioos:station:wmo:42043:1,2007-05-02T13:00:00Z,28.9818,-94.9186,2.0,247.7478498,8.740949605,-99999.0,'11133222,11111222,99999999' 
TABS,ioos:station:wmo:42043:1,2007-05-02T13:30:00Z,28.9818,-94.9186,2.0,247.2565949,4.293856076,-99999.0,'11133222,11111222,99999999' 
TABS,ioos:station:wmo:42043:1,2007-05-02T14:00:00Z,28.9818,-94.9186,2.0,213.93463,8.437067026,-99999.0,'11133222,11111222,99999999' 
TABS,ioos:station:wmo:42043:1,2007-05-02T14:30:00Z,28.9818,-94.9186,2.0,205.3423444,15.3026599,-99999.0,'11111222,11111222,99999999' 
TABS,ioos:station:wmo:42043:1,2007-05-02T15:00:00Z,28.9818,-94.9186,2.0,206.3755063,18.95301559,-99999.0,'11111222,11111222,99999999' 
TABS,ioos:station:wmo:42043:1,2007-05-02T15:30:00Z,28.9818,-94.9186,2.0,198.2049625,19.7169597,-99999.0,'11111222,11111222,99999999' 
TABS,ioos:station:wmo:42043:1,2007-05-02T16:00:00Z,28.9818,-94.9186,2.0,208.7332851,26.00173071,-99999.0,'11111222,11111222,99999999' 
TABS,ioos:station:wmo:42043:1,2007-05-02T16:30:00Z,28.9818,-94.9186,2.0,215.5873979,26.63466914,-99999.0,'11111222,11111222,99999999' 
TABS,ioos:station:wmo:42043:1,2007-05-02T17:30:00Z,28.9818,-94.9186,2.0,219.3286923,26.47638193,-99999.0,'11111222,11111222,99999999' 
TABS,ioos:station:wmo:42043:1,2007-05-02T18:00:00Z,28.9818,-94.9186,2.0,224.2345386,25.94606136,-99999.0,'11111222,11111222,99999999' 
TABS,ioos:station:wmo:42043:1,2007-05-02T18:30:00Z,28.9818,-94.9186,2.0,229.4356267,26.69546778,-99999.0,'11111222,11111222,99999999' 
TABS,ioos:station:wmo:42043:1,2007-05-02T19:00:00Z,28.9818,-94.9186,2.0,228.0876991,27.17114094,-99999.0,'11111222,11111222,99999999' 
TABS,ioos:station:wmo:42043:1,2007-05-02T19:30:00Z,28.9818,-94.9186,2.0,236.7463182,30.56486872,-99999.0,'11111222,11111222,99999999' 
TABS,ioos:station:wmo:42043:1,2007-05-02T20:00:00Z,28.9818,-94.9186,2.0,237.155832,34.55327047,-99999.0,'11111222,11111222,99999999' 
TABS,ioos:station:wmo:42043:1,2007-05-02T20:30:00Z,28.9818,-94.9186,2.0,242.8648325,38.67694404,-99999.0,'11111222,11111222,99999999' 
TABS,ioos:station:wmo:42043:1,2007-05-02T21:00:00Z,28.9818,-94.9186,2.0,242.8434043,39.87568683,-99999.0,'11111222,11111222,99999999' 
TABS,ioos:station:wmo:42043:1,2007-05-02T21:30:00Z,28.9818,-94.9186,2.0,245.1917632,41.56568898,-99999.0,'11111222,11111222,99999999' 
TABS,ioos:station:wmo:42043:1,2007-05-02T22:00:00Z,28.9818,-94.9186,2.0,239.8140911,43.05869134,-99999.0,'11111222,11111222,99999999' 
TABS,ioos:station:wmo:42043:1,2007-05-02T22:30:00Z,28.9818,-94.9186,2.0,241.7101206,41.46206218,-99999.0,'11111222,11111222,99999999' 
TABS,ioos:station:wmo:42043:1,2007-05-02T23:00:00Z,28.9818,-94.9186,2.0,244.873814,41.30873515,-99999.0,'11111222,11111222,99999999' 
TABS,ioos:station:wmo:42043:1,2007-05-02T23:30:00Z,28.9818,-94.9186,2.0,248.1178433,39.71098714,-99999.0,'11111222,11111222,99999999' 
TABS,ioos:station:wmo:42043:1,2007-05-03T00:00:00Z,28.9818,-94.9186,2.0,250.7942231,38.33343319,-99999.0,'11111222,11111222,99999999' 
TABS,ioos:station:wmo:42043:1,2007-05-03T00:30:00Z,28.9818,-94.9186,2.0,255.6970798,38.61693929,-99999.0,'11111222,11111222,99999999' 
TABS,ioos:station:wmo:42043:1,2007-05-03T01:00:00Z,28.9818,-94.9186,2.0,263.9949045,41.6786768,-99999.0,'11111222,11111222,99999999' 
TABS,ioos:station:wmo:42043:1,2007-05-03T01:30:00Z,28.9818,-94.9186,2.0,271.5810718,40.965588,-99999.0,'11111222,11111222,99999999' 
TABS,ioos:station:wmo:42043:1,2007-05-03T02:00:00Z,28.9818,-94.9186,2.0,276.1130595,42.82347487,-99999.0,'11111222,11111222,99999999' 
TABS,ioos:station:wmo:42043:1,2007-05-03T02:30:00Z,28.9818,-94.9186,2.0,281.6502662,40.65755157,-99999.0,'11111222,11111222,99999999' 
TABS,ioos:station:wmo:42043:1,2007-05-03T03:00:00Z,28.9818,-94.9186,2.0,287.0832793,42.48437948,-99999.0,'11111222,11111222,99999999' 
TABS,ioos:station:wmo:42043:1,2007-05-03T03:30:00Z,28.9818,-94.9186,2.0,291.667353,42.73975667,-99999.0,'11111222,11111222,99999999' 
TABS,ioos:station:wmo:42043:1,2007-05-03T04:00:00Z,28.9818,-94.9186,2.0,295.1758865,44.07691686,-99999.0,'11111222,11111222,99999999' 
TABS,ioos:station:wmo:42043:1,2007-05-03T04:30:00Z,28.9818,-94.9186,2.0,301.3935733,44.84470983,-99999.0,'11111222,11111222,99999999' 
TABS,ioos:station:wmo:42043:1,2007-05-03T05:00:00Z,28.9818,-94.9186,2.0,302.0633849,38.97508178,-99999.0,'11111222,11111222,99999999' 
TABS,ioos:station:wmo:42043:1,2007-05-03T05:30:00Z,28.9818,-94.9186,2.0,308.3890178,35.31440641,-99999.0,'11111222,11111222,99999999' 
TABS,ioos:station:wmo:42043:1,2007-05-03T06:00:00Z,28.9818,-94.9186,2.0,307.2845028,32.91686042,-99999.0,'11111222,11111222,99999999' 
TABS,ioos:station:wmo:42043:1,2007-05-03T06:30:00Z,28.9818,-94.9186,2.0,306.0560222,31.24515482,-99999.0,'11111222,11111222,99999999' 
TABS,ioos:station:wmo:42043:1,2007-05-03T07:00:00Z,28.9818,-94.9186,2.0,297.2971703,23.81159381,-99999.0,'11111222,11111222,99999999' 
TABS,ioos:station:wmo:42043:1,2007-05-03T07:30:00Z,28.9818,-94.9186,2.0,296.1317926,22.4552377,-99999.0,'11111222,11111222,99999999' 
TABS,ioos:station:wmo:42043:1,2007-05-03T08:00:00Z,28.9818,-94.9186,2.0,287.1375326,20.8036367,-99999.0,'11111222,11111222,99999999' 
TABS,ioos:station:wmo:42043:1,2007-05-03T08:30:00Z,28.9818,-94.9186,2.0,282.6229995,15.23830043,-99999.0,'11111222,11111222,99999999' 
TABS,ioos:station:wmo:42043:1,2007-05-03T09:00:00Z,28.9818,-94.9186,2.0,281.4485913,18.69188327,-99999.0,'11111222,11111222,99999999' 
TABS,ioos:station:wmo:42043:1,2007-05-03T09:30:00Z,28.9818,-94.9186,2.0,268.5702338,26.05810814,-99999.0,'11111222,11111222,99999999' 
TABS,ioos:station:wmo:42043:1,2007-05-03T10:00:00Z,28.9818,-94.9186,2.0,270.9016724,27.97346064,-99999.0,'11111222,11111222,99999999' 
TABS,ioos:station:wmo:42043:1,2007-05-03T10:30:00Z,28.9818,-94.9186,2.0,271.3866258,31.8293151,-99999.0,'11111222,11111222,99999999' 
TABS,ioos:station:wmo:42043:1,2007-05-03T11:00:00Z,28.9818,-94.9186,2.0,279.1918928,28.17172519,-99999.0,'11111222,11111222,99999999' 
TABS,ioos:station:wmo:42043:1,2007-05-03T11:30:00Z,28.9818,-94.9186,2.0,267.3562949,23.63514756,-99999.0,'11111222,11111222,99999999' 
TABS,ioos:station:wmo:42043:1,2007-05-03T12:00:00Z,28.9818,-94.9186,2.0,261.3322122,44.7915271,-99999.0,'11111222,11111222,99999999' 
TABS,ioos:station:wmo:42043:1,2007-05-03T12:30:00Z,28.9818,-94.9186,2.0,262.5322948,61.2494449,-99999.0,'11111222,11111222,99999999' 
TABS,ioos:station:wmo:42043:1,2007-05-03T13:00:00Z,28.9818,-94.9186,2.0,265.4978138,65.23124481,-99999.0,'11111222,11111222,99999999' 
TABS,ioos:station:wmo:42043:1,2007-05-03T13:30:00Z,28.9818,-94.9186,2.0,267.0243767,55.29453228,-99999.0,'11111222,11111222,99999999' 
TABS,ioos:station:wmo:42043:1,2007-05-03T14:00:00Z,28.9818,-94.9186,2.0,258.0560517,69.34109965,-99999.0,'11111222,11111222,99999999' 
TABS,ioos:station:wmo:42043:1,2007-05-03T14:30:00Z,28.9818,-94.9186,2.0,259.9456588,71.48777868,-99999.0,'11111222,11111222,99999999' 
TABS,ioos:station:wmo:42043:1,2007-05-03T15:00:00Z,28.9818,-94.9186,2.0,262.0832845,75.80237463,-99999.0,'11111222,11111222,99999999' 
TABS,ioos:station:wmo:42043:1,2007-05-03T15:30:00Z,28.9818,-94.9186,2.0,257.6661001,84.64350241,-99999.0,'11111222,11111222,99999999' 
TABS,ioos:station:wmo:42043:1,2007-05-03T16:00:00Z,28.9818,-94.9186,2.0,251.3998101,82.42510843,-99999.0,'11111222,11111222,99999999' 
TABS,ioos:station:wmo:42043:1,2007-05-03T16:30:00Z,28.9818,-94.9186,2.0,248.9921447,86.30648006,-99999.0,'11111222,11111222,99999999' 
TABS,ioos:station:wmo:42043:1,2007-05-03T17:00:00Z,28.9818,-94.9186,2.0,247.2700632,87.581699,-99999.0,'11111222,11111222,99999999' 
TABS,ioos:station:wmo:42043:1,2007-05-03T17:30:00Z,28.9818,-94.9186,2.0,245.86239,78.22973987,-99999.0,'11111222,11111222,99999999' 
TABS,ioos:station:wmo:42043:1,2007-05-03T18:00:00Z,28.9818,-94.9186,2.0,241.3940166,75.73445517,-99999.0,'11111222,11111222,99999999' 
TABS,ioos:station:wmo:42043:1,2007-05-03T18:30:00Z,28.9818,-94.9186,2.0,237.7402531,72.20564521,-99999.0,'11111222,11111222,99999999' 
TABS,ioos:station:wmo:42043:1,2007-05-03T19:00:00Z,28.9818,-94.9186,2.0,244.6390465,66.16645449,-99999.0,'11111222,11111222,99999999' 
TABS,ioos:station:wmo:42043:1,2007-05-03T19:30:00Z,28.9818,-94.9186,2.0,238.1699089,58.4379577,-99999.0,'11111222,11111222,99999999' 
TABS,ioos:station:wmo:42043:1,2007-05-03T20:00:00Z,28.9818,-94.9186,2.0,231.2546672,51.46555839,-99999.0,'11111222,11111222,99999999' 
TABS,ioos:station:wmo:42043:1,2007-05-03T20:30:00Z,28.9818,-94.9186,2.0,220.846413,47.35201474,-99999.0,'11111222,11111222,99999999' 
TABS,ioos:station:wmo:42043:1,2007-05-03T21:00:00Z,28.9818,-94.9186,2.0,209.6064225,45.25916592,-99999.0,'11111222,11111222,99999999' 
TABS,ioos:station:wmo:42043:1,2007-05-03T21:30:00Z,28.9818,-94.9186,2.0,199.7394414,36.80264257,-99999.0,'11111222,11111222,99999999' 
TABS,ioos:station:wmo:42043:1,2007-05-03T22:00:00Z,28.9818,-94.9186,2.0,190.1799936,33.72087929,-99999.0,'11111222,11111222,99999999' 
TABS,ioos:station:wmo:42043:1,2007-05-03T22:30:00Z,28.9818,-94.9186,2.0,183.8160422,34.85729192,-99999.0,'11111222,11111222,99999999' 
TABS,ioos:station:wmo:42043:1,2007-05-03T23:00:00Z,28.9818,-94.9186,2.0,181.9956483,39.62403816,-99999.0,'11111222,11111222,99999999' 
TABS,ioos:station:wmo:42043:1,2007-05-03T23:30:00Z,28.9818,-94.9186,2.0,176.4688061,43.35229867,-99999.0,'11111222,11111222,99999999' 
TABS,ioos:station:wmo:42043:1,2007-05-04T00:00:00Z,28.9818,-94.9186,2.0,176.1424253,44.89169745,-99999.0,'11111222,11111222,99999999' 
TABS,ioos:station:wmo:42043:1,2007-05-04T00:30:00Z,28.9818,-94.9186,2.0,175.0991106,51.0365761,-99999.0,'11111222,11111222,99999999' 
TABS,ioos:station:wmo:42043:1,2007-05-04T01:00:00Z,28.9818,-94.9186,2.0,178.8057738,45.10979495,-99999.0,'11111222,11111222,99999999' 
TABS,ioos:station:wmo:42043:1,2007-05-04T01:30:00Z,28.9818,-94.9186,2.0,191.0672472,44.95610415,-99999.0,'11111222,11111222,99999999' 
TABS,ioos:station:wmo:42043:1,2007-05-04T02:00:00Z,28.9818,-94.9186,2.0,201.9016571,39.16692099,-99999.0,'11111222,11111222,99999999' 
TABS,ioos:station:wmo:42043:1,2007-05-04T02:30:00Z,28.9818,-94.9186,2.0,213.5113469,41.85787978,-99999.0,'11111222,11111222,99999999' 
TABS,ioos:station:wmo:42043:1,2007-05-04T03:00:00Z,28.9818,-94.9186,2.0,223.8767605,42.2153112,-99999.0,'11111222,11111222,99999999' 
TABS,ioos:station:wmo:42043:1,2007-05-04T03:30:00Z,28.9818,-94.9186,2.0,232.6323553,38.7034585,-99999.0,'11111222,11111222,99999999' 
TABS,ioos:station:wmo:42043:1,2007-05-04T04:00:00Z,28.9818,-94.9186,2.0,239.6133693,42.8802542,-99999.0,'11111222,11111222,99999999' 
TABS,ioos:station:wmo:42043:1,2007-05-04T04:30:00Z,28.9818,-94.9186,2.0,249.602775,38.33346449,-99999.0,'11111222,11111222,99999999' 
TABS,ioos:station:wmo:42043:1,2007-05-04T05:00:00Z,28.9818,-94.9186,2.0,248.62836,35.86620833,-99999.0,'11111222,11111222,99999999' 
TABS,ioos:station:wmo:42043:1,2007-05-04T05:30:00Z,28.9818,-94.9186,2.0,246.1977448,30.42801341,-99999.0,'11111222,11111222,99999999' 
TABS,ioos:station:wmo:42043:1,2007-05-04T06:00:00Z,28.9818,-94.9186,2.0,259.4234618,31.54590623,-99999.0,'11111222,11111222,99999999' 
TABS,ioos:station:wmo:42043:1,2007-05-04T06:30:00Z,28.9818,-94.9186,2.0,250.8611246,27.2988388,-99999.0,'11111222,11111222,99999999' 
TABS,ioos:station:wmo:42043:1,2007-05-04T07:00:00Z,28.9818,-94.9186,2.0,240.3107426,21.58329447,-99999.0,'11111222,11111222,99999999' 
TABS,ioos:station:wmo:42043:1,2007-05-04T07:30:00Z,28.9818,-94.9186,2.0,253.1786648,27.95613886,-99999.0,'11111222,11111222,99999999' 
TABS,ioos:station:wmo:42043:1,2007-05-04T08:00:00Z,28.9818,-94.9186,2.0,257.9570321,31.44194809,-99999.0,'11111222,11111222,99999999' 
TABS,ioos:station:wmo:42043:1,2007-05-04T08:30:00Z,28.9818,-94.9186,2.0,265.7156046,38.68809248,-99999.0,'11111222,11111222,99999999' 
TABS,ioos:station:wmo:42043:1,2007-05-04T09:00:00Z,28.9818,-94.9186,2.0,272.3500169,63.66352331,-99999.0,'11111222,11111222,99999999' 
TABS,ioos:station:wmo:42043:1,2007-05-04T09:30:00Z,28.9818,-94.9186,2.0,269.4407447,64.59307238,-99999.0,'11111222,11111222,99999999' 
TABS,ioos:station:wmo:42043:1,2007-05-04T10:00:00Z,28.9818,-94.9186,2.0,269.4393958,66.48317757,-99999.0,'11111222,11111222,99999999' 
TABS,ioos:station:wmo:42043:1,2007-05-04T10:30:00Z,28.9818,-94.9186,2.0,271.3520898,71.21981747,-99999.0,'11111222,11111222,99999999' 
TABS,ioos:station:wmo:42043:1,2007-05-04T11:00:00Z,28.9818,-94.9186,2.0,268.5823075,74.39275838,-99999.0,'11111222,11111222,99999999' 
TABS,ioos:station:wmo:42043:1,2007-05-04T11:30:00Z,28.9818,-94.9186,2.0,266.0969008,76.98852967,-99999.0,'11111222,11111222,99999999' 
TABS,ioos:station:wmo:42043:1,2007-05-04T12:00:00Z,28.9818,-94.9186,2.0,266.3231095,74.23276904,-99999.0,'11111222,11111222,99999999' 
TABS,ioos:station:wmo:42043:1,2007-05-04T12:30:00Z,28.9818,-94.9186,2.0,263.9252119,69.26892016,-99999.0,'11111222,11111222,99999999' 
TABS,ioos:station:wmo:42043:1,2007-05-04T13:00:00Z,28.9818,-94.9186,2.0,263.6228211,65.72664909,-99999.0,'11111222,11111222,99999999' 
TABS,ioos:station:wmo:42043:1,2007-05-04T13:30:00Z,28.9818,-94.9186,2.0,262.5266124,65.35510692,-99999.0,'11111222,11111222,99999999' 
TABS,ioos:station:wmo:42043:1,2007-05-04T14:00:00Z,28.9818,-94.9186,2.0,258.5525805,61.47277853,-99999.0,'11111222,11111222,99999999' 
TABS,ioos:station:wmo:42043:1,2007-05-04T14:30:00Z,28.9818,-94.9186,2.0,258.9849401,58.98663323,-99999.0,'11111222,11111222,99999999' 
TABS,ioos:station:wmo:42043:1,2007-05-04T15:00:00Z,28.9818,-94.9186,2.0,258.0349275,57.83646341,-99999.0,'11111222,11111222,99999999' 
TABS,ioos:station:wmo:42043:1,2007-05-04T15:30:00Z,28.9818,-94.9186,2.0,260.3220397,56.4533666,-99999.0,'11111222,11111222,99999999' 
TABS,ioos:station:wmo:42043:1,2007-05-04T16:00:00Z,28.9818,-94.9186,2.0,256.8455639,53.87354824,-99999.0,'11111222,11111222,99999999' 
TABS,ioos:station:wmo:42043:1,2007-05-04T16:30:00Z,28.9818,-94.9186,2.0,253.088307,55.89720923,-99999.0,'11111222,11111222,99999999' 
TABS,ioos:station:wmo:42043:1,2007-05-04T17:00:00Z,28.9818,-94.9186,2.0,246.8940065,50.17488017,-99999.0,'11111222,11111222,99999999' 